DECAYED
Showing default

SHANNON, 48938 (Decayed)

Orbit data source: Space-Track

SHANNON, 48938 was a payload satellite owned by Lynk (US) in LEO that was launched on Wed, 30 Jun 2021 UTC via an FALCON 9 launch vehicle from the Air Force Eastern Test Range (AFETR). Payload-class satellites include a variety of spacecraft equipped with specific instruments for various scientific and technological missions. These include communications satellites like Starlink; space stations such as the ISS; scientific satellites like the Hubble; Earth observation satellites from companies like Planet Labs, Umbra, and HawkEye 360; GPS; miniature CubeSats for education and research; and military/defense satellites.

Not visible in the next 10 days
Identifier
48938, 2021-059BM
Orbit
Decayed
Country
Flag of USUS
Related business
Manufacturer
Lynk
Mission
Decayed Commercial Communications
Bus & Motor
LYNK SHANNON, Unknown motor
Mass
~30 kg wet, ~30 kg dry
Launch date (UTC)
2021-06-30 (4 years ago)
Launch vehicle
FALCON 9
Launch site
Air Force Eastern Test Range (AFETR)
Object type
Payload
Rocket body
Debris
Shape & HBR
Box, 0.5 m
Radar Cross Section
0.650 m², Medium (>0.1 m² and < 1m²)

Expand to show TLE details & history
Last TLE update: 9 months ago

TLE from 9 months ago
0 SHANNON
1 48938U 21059BM  25028.26156222  .06143074  26643-5  53993-3 0  9995
2 48938  97.6298 203.3836 0008643 288.4851  71.5508 16.39217163200464
Epoch: 2025-01-28T06:16Z
TLE epoch observation values (Epoch: 2025-01-28T06:16:38.975Z)
Latitude
-0.00001°
Longitude
-18.54865°
Altitude
169.343 km
Speed
7.806 km/s
True Right ascension
13h 33m 32s
True Declination
0° 00' 00"
Sunlit
Object was in full shadow at epoch
Visualization orbit readout
Latitude
Unknown
Longitude
Unknown
Altitude
Unknown
Speed
Unknown
Apparent Right ascension
Unknown
Apparent Declination
Unknown
Sunlit
N/A
Visualization observer readout
Local Sidereal Time
22:53:25
Azimuth
Unknown
Elevation
Unknown
Doppler factor
Unknown
Orbital elements
Apogee altitude
170.36 km
Perigee altitude
159.05 km
Semi-major axis
6,542.842 km
Eccentricity
0.00086
Inclination
97.6298°
RAAN
203.3836°
Arg. of periapsis
288.4851°
True anomaly
71.64478°
Mean anomaly
71.5508°
Eccentric anomaly
71.59779°
Mean motion
4.10104 °/min
Orbital period
87.78 mins
BSTAR
0.00053993
Loading maneuver chart data...
Computing Atmospheric mass density...
Loading historical data...
Loading historical data...
Loading historical data...
Loading historical data...
Loading historical data...
Loading historical data...
Loading historical data...

Documentation

Showing up to 5 results
|